GEFSNE_500_meanwind_288.txt.gz
Wind_Speed
44 44 43 44 44 43 44 44 44 43 43 43 44 44 44 45 45 46 47 47 47 47 48 48 48 48 48 47 46 45 45 45 46 47 47 47 46 45
45 45 44 45 45 45 45 45 45 45 45 44 45 45 45 45 46 47 47 47 48 49 49 49 49 48 47 47 46 45 45 47 47 47 47 47 46 45
46 46 47 46 46 46 46 45 46 47 47 46 47 47 47 46 46 46 46 47 48 49 50 49 48 48 48 47 47 47 47 47 47 47 47 46 44 43
47 47 47 46 46 46 47 46 47 47 48 48 49 49 47 47 47 47 48 48 48 49 49 49 48 48 48 47 47 48 48 48 48 48 47 46 45 44
47 46 46 47 48 47 47 47 47 47 48 49 49 48 48 48 49 49 49 49 49 49 48 48 48 48 48 48 47 48 48 49 49 48 47 47 47 46
47 47 47 49 49 48 48 48 48 48 48 48 47 47 48 48 49 49 49 49 49 49 48 48 49 49 49 48 48 49 49 49 49 49 48 47 47 46
48 47 47 47 47 48 48 48 48 48 48 47 46 46 46 47 47 48 48 48 47 48 48 48 49 49 49 49 49 49 49 50 50 49 48 47 46 45
46 46 46 46 46 47 47 47 47 46 46 45 45 45 46 46 46 46 46 46 47 47 48 49 49 49 49 49 49 49 49 49 49 48 47 46 44 44
44 44 45 45 45 45 45 46 46 46 45 45 45 46 45 45 44 44 44 45 46 46 47 48 48 48 48 48 48 48 48 48 47 46 45 44 44 43
44 44 43 43 44 44 44 44 45 45 45 45 45 45 44 43 43 44 44 45 45 46 47 47 46 46 47 48 47 47 47 46 45 45 45 44 43 43
41 41 41 43 43 44 44 44 44 44 45 44 44 44 44 43 44 45 45 46 46 45 46 45 45 45 45 46 46 46 46 45 45 44 44 43 43 43
39 41 42 43 43 43 43 42 43 43 43 44 44 44 44 44 45 45 46 45 45 45 44 44 44 44 44 45 45 45 44 44 44 43 42 42 42 41
38 40 41 41 41 41 42 42 42 42 42 43 43 43 44 44 44 44 44 44 44 43 43 44 44 44 44 43 43 43 42 42 42 42 41 41 41 41
38 38 39 39 39 39 40 41 41 41 42 41 41 42 43 43 43 42 43 44 44 44 43 43 43 43 43 42 40 40 40 40 40 40 40 39 39 39
37 37 37 37 38 39 40 40 41 42 42 42 41 41 42 42 42 42 43 42 42 42 41 41 42 42 41 40 38 38 37 37 37 38 38 38 38 38
38 37 37 37 38 38 39 40 41 41 41 41 40 39 40 41 41 41 40 40 40 40 40 41 41 40 38 37 37 36 36 36 37 37 36 36 36 35
36 37 38 38 38 38 39 40 40 40 40 40 40 39 39 39 40 40 40 40 40 40 40 40 39 38 37 36 36 35 35 36 36 35 34 34 33 32
37 37 37 38 38 38 39 39 39 39 39 39 39 39 39 39 40 40 40 40 40 40 40 38 37 36 36 35 34 34 34 34 34 33 32 32 31 30
36 37 37 37 37 38 38 37 37 38 38 38 38 38 39 39 39 39 39 39 39 38 37 37 36 35 34 33 33 33 32 32 31 31 31 30 29 29
35 36 37 37 37 37 37 38 38 38 38 38 38 38 38 38 39 39 38 38 37 36 36 35 34 34 33 32 31 32 31 30 29 29 29 28 28 27
34 35 36 36 36 36 37 37 37 37 37 37 37 37 38 38 37 37 37 36 36 35 34 34 34 33 32 31 31 31 30 29 29 28 28 27 27 26
34 34 34 35 35 36 36 36 37 36 36 36 36 36 36 36 36 35 35 34 34 33 33 33 32 32 31 31 30 30 29 29 29 29 28 27 26 25
33 34 34 34 35 35 35 35 35 35 35 35 35 35 35 35 35 35 34 33 33 32 32 31 31 30 30 30 30 29 29 28 27 27 26 25 24 24

GEFSNE_500_meanwind_294.txt.gz
Wind_Speed
45 45 44 44 44 44 44 44 45 45 45 45 46 45 45 45 45 46 46 46 46 47 47 48 48 48 47 46 46 46 46 46 46 45 45 45 45 45
47 47 46 46 46 45 45 45 46 46 46 45 46 46 47 48 48 47 48 47 47 48 49 48 48 47 47 46 46 46 46 46 46 46 46 46 46 46
49 48 47 47 47 47 47 46 46 46 45 45 46 47 48 49 49 49 49 48 48 48 48 48 46 46 46 47 46 46 46 46 47 47 46 46 47 47
48 48 48 48 48 48 47 46 47 47 47 46 46 46 48 48 48 48 49 50 50 48 47 46 46 46 46 47 47 47 47 47 47 47 47 48 48 48
47 47 47 47 47 48 48 48 48 47 46 46 46 46 45 46 47 48 48 48 48 48 47 45 45 45 46 46 47 47 47 48 48 48 48 48 48 47
46 46 46 47 47 47 48 48 48 47 46 46 45 46 45 45 45 45 45 45 46 46 45 44 44 45 45 46 47 47 47 47 47 47 47 47 48 48
46 45 45 46 46 47 47 47 47 46 45 45 45 44 45 45 45 45 44 43 43 43 43 43 44 45 46 46 46 46 47 48 48 48 48 48 48 48
44 44 45 45 46 46 46 45 45 46 46 45 44 44 44 43 43 44 45 43 42 42 42 43 43 44 44 44 45 46 47 47 48 48 48 48 47 47
43 43 44 44 44 43 43 44 44 44 44 44 44 43 42 42 43 44 44 43 43 42 42 42 43 43 44 45 45 45 46 47 47 47 46 45 45 45
41 41 41 40 40 40 41 41 41 41 43 43 43 43 42 42 43 44 43 43 43 43 43 42 42 42 43 45 45 45 46 46 46 45 45 44 44 43
39 39 39 39 39 40 40 41 41 41 42 42 43 42 43 43 43 43 43 42 42 43 44 44 43 43 43 44 44 45 45 44 44 44 44 43 43 42
38 37 37 38 39 40 41 41 41 41 41 41 42 42 42 42 42 43 42 43 43 43 43 43 43 44 43 43 44 44 43 42 42 42 42 41 41 40
38 38 38 38 38 39 40 41 41 41 41 41 41 41 41 41 41 41 42 42 42 42 42 43 43 43 43 43 43 42 41 41 41 40 40 39 38 38
37 37 37 38 38 38 39 39 40 40 40 40 40 40 40 40 40 41 42 42 42 42 42 42 42 43 42 42 41 40 39 39 39 39 38 37 36 35
36 35 36 36 37 38 39 39 39 38 38 38 39 39 39 39 40 41 41 41 41 41 42 42 42 41 41 40 39 38 37 37 37 36 35 35 34 33
34 35 35 35 36 38 38 37 37 37 37 37 38 39 39 39 39 39 40 40 40 40 41 41 41 40 39 39 38 37 37 36 36 35 34 33 33 31
34 34 35 35 35 36 37 37 37 37 37 37 38 38 38 38 39 39 40 40 39 39 40 40 40 39 38 38 38 36 36 36 35 34 32 32 31 30
35 35 35 35 34 34 35 35 36 37 37 36 36 37 37 38 38 39 39 39 39 39 39 38 38 37 37 37 36 35 35 34 33 32 31 30 30 30
32 33 34 35 34 34 35 35 35 36 36 37 37 38 37 38 38 38 39 39 39 39 38 38 37 36 35 34 34 34 33 32 31 31 30 30 30 29
32 32 32 32 32 33 33 34 34 35 36 36 37 37 37 38 39 39 39 39 38 38 37 36 35 34 34 33 32 32 32 31 30 30 29 29 29 29
31 31 31 30 31 32 33 34 34 35 35 36 36 36 37 37 38 39 38 38 37 36 35 33 33 32 32 32 31 30 30 30 30 29 29 28 28 28
30 30 30 30 31 31 32 33 34 35 35 36 36 36 36 36 36 36 36 35 34 33 32 32 32 31 31 30 29 29 29 28 28 29 28 28 28 27
28 29 29 30 30 30 31 33 34 35 36 36 36 36 35 35 35 34 34 33 32 31 31 30 30 29 29 29 28 28 27 27 28 28 28 28 27 26

GEFSNE_500_meanwind_300.txt.gz
Wind_Speed
48 47 47 46 47 47 47 47 47 45 44 44 44 44 44 45 44 44 44 45 46 45 45 45 45 45 45 45 44 45 45 45 45 46 46 46 46 47
48 47 47 47 47 47 47 47 46 45 44 44 44 43 44 44 44 44 45 45 46 46 45 45 45 44 45 45 45 45 44 45 45 46 46 46 47 47
45 45 45 45 46 47 46 46 46 45 45 45 45 44 44 44 44 45 45 45 44 45 45 44 44 45 45 44 44 44 44 45 45 46 46 46 47 48
45 45 46 46 46 46 46 45 45 45 46 46 45 45 45 45 45 44 44 45 44 45 45 44 44 44 44 44 45 45 45 45 45 45 46 47 47 47
46 46 46 46 45 45 46 46 45 45 46 45 45 46 45 45 45 44 44 44 44 45 46 46 45 45 45 45 45 45 45 46 45 45 46 46 46 46
46 46 46 46 46 46 46 46 45 45 45 45 45 44 44 44 44 43 43 43 44 45 46 46 46 45 45 45 45 45 45 44 44 44 44 45 44 44
46 46 46 45 45 45 45 46 46 45 45 44 44 44 44 43 43 43 43 43 43 45 44 45 46 46 46 46 45 45 44 44 44 44 43 43 44 44
44 44 45 44 43 43 44 44 44 44 44 44 44 44 44 44 44 43 43 43 43 43 44 44 45 46 46 45 45 45 44 44 44 43 43 42 43 44
42 42 42 43 42 42 42 43 44 44 44 43 43 44 44 43 43 43 43 43 43 43 43 43 44 45 45 45 44 45 45 44 44 43 42 42 42 42
42 42 43 43 42 41 42 43 43 43 43 43 43 43 43 42 42 42 42 43 43 43 43 43 43 44 44 44 45 45 45 44 44 44 43 42 42 42
41 41 41 42 41 42 41 41 41 42 42 42 42 42 42 41 41 41 42 43 43 43 43 43 42 42 42 43 44 44 44 44 44 43 42 41 41 40
40 40 40 40 39 40 40 39 39 39 40 41 40 41 40 40 41 41 42 42 42 42 42 43 43 42 42 41 42 42 42 43 43 41 40 39 39 38
39 39 38 38 38 38 38 38 38 39 39 39 39 39 40 40 41 42 42 42 42 42 42 43 43 42 41 40 40 40 41 41 40 39 38 37 37 37
37 37 36 36 37 36 37 36 36 37 38 39 39 39 40 40 40 40 41 42 42 41 41 41 41 41 40 39 38 38 38 38 37 37 36 36 35 36
35 35 36 36 36 35 35 35 35 36 38 38 38 39 39 39 40 40 40 40 40 40 40 40 40 40 39 38 37 37 36 35 35 34 34 33 33 34
33 34 35 36 35 35 34 35 35 35 35 36 36 37 38 38 38 39 39 39 39 39 39 39 38 38 37 37 36 35 34 33 33 32 32 32 33 33
32 31 32 33 33 33 34 34 34 34 34 35 35 36 37 37 37 37 37 38 38 38 37 37 36 36 36 35 35 34 33 32 32 32 31 32 33 33
31 30 30 31 32 32 33 33 33 33 33 33 33 34 35 35 35 35 36 36 36 36 36 37 36 35 35 34 34 33 32 32 31 31 31 31 31 32
29 30 30 30 30 31 31 31 30 30 31 31 31 32 32 33 34 34 35 35 35 35 35 35 34 34 32 32 32 32 31 30 30 30 30 30 29 29
29 29 29 29 29 28 28 29 30 30 31 31 31 31 32 32 34 34 34 34 34 34 34 33 32 31 31 30 30 30 30 29 29 28 28 28 28 28
29 29 29 28 28 28 28 29 30 31 31 31 31 31 32 32 33 34 33 33 33 33 32 31 31 31 30 29 28 28 28 28 28 27 27 26 27 27
29 29 28 28 28 28 29 29 30 30 31 31 31 31 32 32 33 33 33 32 32 32 31 30 30 29 29 28 27 26 26 26 26 26 25 25 25 25
28 29 29 29 29 29 29 29 30 30 31 31 32 32 32 33 33 33 32 32 31 31 29 29 28 27 27 26 25 24 24 24 24 24 23 23 24 24

GEFSNE_500_meanwind_306.txt.gz
Wind_Speed
51 50 50 49 49 49 49 50 49 48 47 47 46 46 45 44 44 45 44 43 43 43 42 42 42 42 43 43 43 43 43 43 43 44 44 44 45 45
50 50 51 51 51 50 50 49 48 49 48 47 46 46 45 44 45 45 45 44 43 43 42 41 42 43 43 43 44 44 44 43 44 44 45 45 46 46
50 49 50 49 49 48 49 48 48 48 48 47 46 44 44 45 44 44 43 43 42 42 42 42 42 43 44 44 45 45 45 44 44 45 46 46 46 47
48 48 47 48 48 48 48 48 47 47 47 47 45 45 44 44 44 43 42 42 43 42 42 42 43 44 44 45 45 45 46 45 44 45 46 46 46 46
47 46 45 46 46 45 46 47 47 46 46 45 44 44 44 44 44 43 42 43 43 42 42 43 44 44 45 44 45 45 46 45 45 46 46 46 46 46
46 45 45 45 45 45 46 45 44 44 43 42 43 43 43 43 44 44 44 44 43 43 43 44 44 45 45 44 44 45 45 46 46 46 46 45 46 46
46 46 46 45 45 45 44 44 44 43 42 42 42 42 42 42 43 44 44 45 44 44 44 44 44 44 44 45 45 45 45 45 45 46 45 46 46 45
45 45 44 44 44 44 44 43 43 43 42 42 42 42 41 42 42 43 44 44 44 44 44 43 43 43 43 43 44 44 45 45 45 45 45 45 45 43
45 43 43 43 43 44 44 44 44 44 43 43 43 41 41 41 41 42 42 43 43 43 43 42 42 42 42 43 43 44 44 45 45 45 45 44 43 42
44 44 43 43 44 44 44 44 44 44 43 43 42 41 41 41 41 42 42 41 41 41 41 41 42 42 42 43 42 43 43 44 44 44 44 43 42 40
42 41 42 42 41 42 42 42 41 41 41 41 41 41 40 40 40 41 40 41 40 40 40 40 40 40 40 41 42 42 42 43 43 43 43 41 39 38
40 40 39 39 39 39 39 40 39 39 39 40 40 40 39 39 40 40 40 40 40 40 39 40 40 40 40 40 40 41 42 42 42 42 41 40 38 37
39 39 38 37 37 38 38 38 37 37 38 38 39 39 38 37 37 38 39 39 39 39 39 39 39 39 40 39 39 39 40 41 41 41 40 38 37 36
37 37 37 37 37 37 37 37 37 37 37 37 37 37 36 36 36 37 38 38 38 38 38 39 39 39 39 39 39 39 39 39 39 38 36 35 34 34
35 35 35 35 35 36 36 37 37 37 38 37 38 37 37 37 37 37 37 37 37 37 38 38 38 39 39 39 39 38 37 36 36 34 33 33 33 32
34 34 34 34 34 34 35 35 36 36 36 37 37 37 38 37 37 36 36 36 36 36 37 38 38 38 38 38 38 37 35 34 33 31 30 30 31 31
33 32 32 33 34 33 34 34 35 35 35 36 36 35 34 35 35 36 35 35 35 35 35 37 37 36 36 36 35 34 33 32 30 29 28 28 29 29
30 31 31 32 33 33 33 33 34 34 35 34 34 34 34 34 35 35 35 34 34 34 34 35 35 35 35 35 35 33 31 29 28 27 27 27 28 28
27 28 29 29 30 31 31 32 33 33 33 33 33 33 34 34 33 33 33 32 33 33 34 34 34 34 34 33 32 32 30 28 27 27 27 27 27 28
26 26 27 27 28 29 30 30 30 30 29 30 30 30 30 31 31 32 32 32 32 33 33 32 32 32 32 31 31 30 29 27 26 26 26 26 26 27
26 26 26 27 28 28 29 29 29 29 29 29 29 29 29 29 30 30 30 31 31 31 31 31 31 31 30 30 29 28 28 27 26 26 25 25 24 25
26 27 27 28 28 28 28 29 29 29 29 29 29 29 29 29 29 30 30 30 30 30 30 30 30 29 28 28 27 26 25 25 24 24 23 22 22 23
26 26 27 27 27 27 28 29 28 28 29 29 28 28 28 28 28 28 29 29 29 29 29 29 28 27 26 26 24 24 23 22 21 20 20 20 20 21